Tracking 28794 objects as of 22-Apr-2024
HD Live streaming from Space Station
objects crossing your sky now

BB 2

Track BB 2 now!
10-day predictions


NORAD ID: 56170
Int'l Code: 2023-050J
Perigee: 967.1 km
Apogee: 979.5 km
Inclination: 81.0 °
Period: 104.4 minutes
Semi major axis: 7344 km
RCS: Unknown
Launch date: April 2, 2023
Source: United States (US)
Launch site: AIR FORCE WESTERN TEST RANGE (AFWTR)
Your satellite tracking list
Your tracking list is empty




NASA's NSSDC Master Catalog

Two Line Element Set (TLE):
1 56170U 23050J   24112.83676443  .00000199  00000-0  18319-3 0  9994
2 56170  80.9992 108.7937 0008453 237.3231 122.7107 13.79354678 53061
Source of the keplerian elements: AFSPC